sat.trackr.live / text

‹ back to catalog

STARLINK-37493

NORAD 68910 · 2026-097R

PAYLOAD ACTIVE UNKNOWN

§ Identity

Operator
Country
US
Launch date
2026-04-30
Launch site
AFWTR
Launch vehicle
Mass (kg)
RCS (m²)

Purposes: comms

External: N2YO · Heavens-Above · Gunter

§ Orbital elements

Epoch: 2026-05-25T02:28:32.674944Z

Period
92.95 min
Inclination
97.2842°
Eccentricity
0.0002977
Mean motion
15.49207617 rev/d
Perigee alt
417.0 km
Apogee alt
421.1 km
Semi-major
6,797.2 km
B*
5.1116e-4
RAAN
340.8751°
Arg perigee
89.1331°
Mean anomaly
271.0261°
Rev number
394

§ Raw data

STARLINK-374931 68910U 26097R   26145.10315596  .00027830  00000+0  51116-3 0  99922 68910  97.2842 340.8751 0002977  89.1331 271.0261 15.49207617  3943

JSON: /api/v1/satellites/68910 · /tle

For live sub-satellite position, see the globe view (requires WebGL).

§ Visibility from observer

Set your observer location to see the next 7 days of passes ≥ 10°. The values pass through the URL so the page stays shareable.

No JS? Fill the form by hand. The geolocation button needs JavaScript.